Regional Weather Roundup
Issued by NWS Upton, NY

Current Version | Previous Version | Text Only | Print | Product List | Glossary Off
Versions: 1 2 3 4 5 6 7 8 9 10 11 12 13 14 15 16 17 18 19 20 21 22 23 24 25 26 27 28 29 30 31 32 33 34 35 36 37 38 39 40 41 42 43 44 45 46 47 48 49 50
551 ASUS41 KOKX 101508 RWROKX REGIONAL WEATHER ROUNDUP NATIONAL WEATHER SERVICE NEW YORK NY 1000 AM EST SAT DEC 10 2016 NOTE: "FAIR" INDICATES FEW OR NO CLOUDS BELOW 12,000 FEET WITH NO SIGNIFICANT WEATHER AND/OR OBSTRUCTIONS TO VISIBILITY. NYZ071-072-176-178-NJZ106-104-101600- NEW YORK CITY METRO AREA CITY SKY/WX TMP DP RH WIND PRES REMARKS Central Park MOSUNNY 31 19 61 VRB7 30.42R WCI 24 Wall St Helipt PTSUNNY 34 23 64 W13G22 30.42S WCI 25 Bronx Bot Gard N/A 32 16 51 W12 30.42S WCI 23 LaGuardia APRT PTSUNNY 34 19 54 W13 30.40S WCI 25 Kennedy INTL PTSUNNY 34 20 56 W13 30.42S WCI 25 Breezy Point N/A N/A N/A N/A W12G17 N/A Newark/Liberty PTSUNNY 33 22 63 W13 30.41S WCI 24 Teterboro CLOUDY 32 17 54 NW8 30.40S WCI 25 $$ NYZ177-179-078>081-101600- LONG ISLAND NEW YORK CITY SKY/WX TMP DP RH WIND PRES REMARKS Jones Beach N/A 32 N/A N/A W14 N/A WCI 22 Matinecock PT NOT AVBL Farmingdale MOSUNNY 33 16 49 NW12G18 30.39F WCI 24 MacArthur/ISP PTSUNNY 32 15 49 NW15G26 30.38S WCI 22 Shirley MIX PCPN 32 17 54 NW14G22 30.38S WCI 22 Westhampton NOT AVBL Southampton N/A 32 23 69 NW9 30.35S WCI 24 Bridgehampton NOT AVBL East Hampton N/A 29 14 53 W10G16 30.37S WCI 20 Montauk N/A 30 12 47 NW15G25 30.36F WCI 19 $$ NYZ052-065-067-101600- HUDSON VALLEY CITY SKY/WX TMP DP RH WIND PRES REMARKS White Plains MOSUNNY 30 14 51 NW14 30.36S WCI 19 Newburgh MOSUNNY 27 19 74 W14 30.38R WCI 15 Montgomery MOSUNNY 28 18 66 NW8 30.37R WCI 20 Poughkeepsie MOSUNNY 27 18 69 W3 30.38R Albany MOSUNNY 24 10 55 NW9 30.39R WCI 14 $$ NJZ001-105-106-008-010-013-015-019>022-104-101600- NEW JERSEY CITY SKY/WX TMP DP RH WIND PRES REMARKS Newark/Liberty PTSUNNY 33 22 63 W13 30.41S WCI 24 Teterboro CLOUDY 32 17 54 NW8 30.40S WCI 25 Caldwell MOSUNNY 31 21 66 W6 30.41S WCI 25 Somerville SUNNY 32 19 58 NW8 30.40S WCI 25 Linden N/A 33 21 61 NW12G18 30.42S WCI 24 Sussex CLOUDY 29 18 63 CALM 30.37R Andover N/A 28 22 78 SW3 30.38R Trenton MOSUNNY 32 18 56 W10 30.43R WCI 24 Millville SUNNY 34 19 54 NW12 30.46F WCI 25 Atlantic City SUNNY 34 18 52 NW14 30.45F WCI 25 Wrightstown MOSUNNY 34 19 54 NW13 30.40F WCI 25 Toms River SUNNY 33 20 58 W15G21 30.44S WCI 23 Belmar MOSUNNY 33 19 56 W14 30.42S WCI 23 $$ PAZ047>061-062-071-101600- EASTERN PENNSYLVANIA CITY SKY/WX TMP DP RH WIND PRES REMARKS Philadelphia MOSUNNY 34 17 50 NW18 30.46S WCI 23 Allentown MOSUNNY 30 18 60 W9 30.41R WCI 22 Scranton CLOUDY 28 21 75 SW9 30.35R WCI 19 $$ CTZ002-004>006-009-010-012-RIZ004-006-007-MAZ004-011-015-101600- SOUTHERN NEW ENGLAND IN CT CITY SKY/WX TMP DP RH WIND PRES REMARKS Bradley INTL PTSUNNY 24 9 52 NW13 30.36R WCI 12 Hartford MOSUNNY 27 10 49 NW15G23 30.38R WCI 15 Danbury MOSUNNY 27 14 58 NW8 30.37R WCI 19 Wtrbury/Oxford MOSUNNY 25 10 54 NW8 30.35R WCI 16 Bridgeport MOSUNNY 31 14 49 W14 30.39S WCI 21 Meriden MOSUNNY 30 10 43 NW14G23 30.37R WCI 19 New Haven MOSUNNY 29 14 53 NW7 30.38S WCI 22 Chester N/A 27 10 50 NW10 30.34S WCI 17 Groton SUNNY 31 10 41 NW13G24 30.36S WCI 21 Wilimantic CLOUDY 28 10 46 NW10G21 30.36R WCI 19 IN RI CITY SKY/WX TMP DP RH WIND PRES REMARKS Providence PTSUNNY 26 6 42 NW15 30.34R WCI 14 Block Island MOSUNNY 28 13 53 NW15G25 30.35S WCI 16 Westerly SUNNY 28 7 41 NW12G18 30.36S WCI 18 IN MA CITY SKY/WX TMP DP RH WIND PRES REMARKS Boston MOSUNNY 24 7 48 NW16G23 30.31S WCI 11 Worcester PTSUNNY 17 3 54 NW12G20 30.26R WCI 4 Westfield CLOUDY 23 9 55 NW10 30.34R WCI 12 Provincetown CLOUDY 26 14 60 NW15G21 30.30R WCI 14 Nantucket MOSUNNY 27 8 44 W21 30.32R WCI 13 $$ ANZ330-335-338-340-345-350-353-355-101600- COASTAL MARINE OBSERVATIONS STATION/POSITION TIME SKY/WX TEMP WIND PRES VSBY WAVE AIR SEA DIR/SP/G HT/PER (UTC) (F) (DEG/KT/KT) (MB) (MI) (FT/S) NY HARB ENTRANCE 1350 33 51 280/ 19/ 23 1029.3 3/ 3 20 S FIRE ISLAND 1350 35 52 310/ 19/ 25 1028.7 4/ 5 GREAT SOUTH BAY 1430 31 39 N/A 23 SSW MONTAUK P 1350 31 54 300/ 17/ 21 1028.4 3/ 5 15 E BARNEGAT LI 1430 51 N/A 4/ 4 HUDSON CANYON 1350 38 55 1028.6 8/ 7 KINGS POINT 1442 32 44 1029.4 EXECUTION ROCKS 1445 34 280/ 12/ 16 N/A CENTRAL LI SOUND 1445 29 49 280/ 14/ 19 N/A 2/ 3 EASTERN LI SOUND NOT AVBL ROBBINS REEF 1442 31 290/ 13/ 16 1030.0 $$ >>>>>>>>>>>>>>>>>>>>>>>>>>>> KEY <<<<<<<<<<<<<<<<<<<<<<<<<<< > < > SKY/WX - Sky Condition/Present Weather < > TMP - Temperature in Fahrenheit < > DP - Dew Point in Fahrenheit < > RH - Relative Humidity in Percent < > WIND - Direction (from) and Speed in MPH < > PRES - Mean Sea Level Pressure (inches of Hg) < > WCI - Wind Chill Index < > VSB - VISIBILITY IN MILES < > HX - HEAT INDEX < > TC - TEMPERATURE IN CELSIUS < > VRB - VARIABLE WIND DIRECTION < > < >>>>>>>>>>>>>>>>>>>>>>>>>>>> KEY <<<<<<<<<<<<<<<<<<<<<<<<<<<

USA.gov is the U.S. government's official web portal to all federal, state and local government web resources and services.